Weather History for KAZO - November, 2013

Change the Weather History Date:

Wednesday, November 20, 2013

  Actual Average Record
Temperature  
Mean Temperature 37 °F 39 °F  
Max Temperature 45 °F 45 °F 67 °F (1953)
Min Temperature 28 °F 32 °F 13 °F (1986)
Degree Days  
Heating Degree Days 28 26  
Month to date heating degree days 459 448  
Since 1 July heating degree days 1003 1040  
Cooling Degree Days 0 0  
Month to date cooling degree days 0 0  
Year to date cooling degree days 725 675  
Moisture  
Dew Point 25 °F    
Average Humidity 60    
Maximum Humidity 75    
Minimum Humidity 45    
Precipitation  
Precipitation T in 0.09 in 0.95 in (1981)
Month to date precipitation 2.31 2.11  
Year to date precipitation 37.79 32.85  
Sea Level Pressure  
Sea Level Pressure 30.31 in    
Wind  
Wind Speed 7 mph (SE)    
Max Wind Speed 17 mph    
Max Gust Speed 24 mph    
Visibility 10 miles    
Events Rain    
T = Trace of Precipitation, MM = Missing Value Source: NWS Daily Summary

Daily Weather History Graph

Daily Weather History Graph

Search for Another Location

Airport or City:

Trip Planner

Search our weather history database for the weather conditions in past years. The results will help you decide how hot, cold, wet, or windy it might be!

Date:

Astronomy

Nov. 20, 2013 Rise Set
Actual Time 7:39 AM EST 5:16 PM EST
Civil Twilight 7:08 AM EST 5:46 PM EST
Nautical Twilight 6:34 AM EST 6:21 PM EST
Astronomical Twilight 6:00 AM EST 6:54 PM EST
Moon 7:58 PM EST (11/20) 10:03 AM EST (11/20)
Length of Visible Light 10h 38m
Length of Day
9h 37m
Waning Gibbous, 91% of the Moon is Illuminated
Nov 20
Waning Gibbous
Nov 25
Last Quarter
Dec 2
New
Dec 9
First Quarter
Dec 17
Full

Hourly Weather History & Observations

Time (EST) Temp. Windchill Dew Point Humidity Pressure Visibility Wind Dir Wind Speed Gust Speed Precip Events Conditions
12:53 AM 32.0 °F 27.5 °F 23.0 °F 69% 30.39 in 10.0 mi SE 4.6 mph - N/A   Clear
1:53 AM 30.0 °F 25.2 °F 23.0 °F 75% 30.39 in 10.0 mi SE 4.6 mph - N/A   Clear
2:53 AM 30.0 °F 24.1 °F 21.9 °F 72% 30.39 in 10.0 mi SE 5.8 mph - N/A   Clear
3:53 AM 28.9 °F 23.9 °F 21.9 °F 75% 30.40 in 10.0 mi SE 4.6 mph - N/A   Clear
4:53 AM 28.0 °F 22.8 °F 21.9 °F 78% 30.40 in 10.0 mi ESE 4.6 mph - N/A   Clear
5:53 AM 28.9 °F 22.8 °F 21.9 °F 75% 30.40 in 10.0 mi SE 5.8 mph - N/A   Clear
6:53 AM 28.9 °F 22.8 °F 21.9 °F 75% 30.40 in 10.0 mi SE 5.8 mph - N/A   Clear
7:53 AM 28.9 °F 21.1 °F 21.9 °F 75% 30.40 in 10.0 mi SE 8.1 mph - N/A   Clear
8:53 AM 32.0 °F 24.8 °F 23.0 °F 69% 30.39 in 10.0 mi SE 8.1 mph 16.1 mph N/A   Clear
9:53 AM 34.0 °F 24.6 °F 24.1 °F 67% 30.37 in 10.0 mi SE 13.8 mph 21.9 mph N/A   Clear
10:53 AM 37.0 °F 28.5 °F 25.0 °F 62% 30.35 in 10.0 mi SE 13.8 mph 23.0 mph N/A   Clear
11:53 AM 39.0 °F 32.3 °F 24.1 °F 55% 30.33 in 10.0 mi SSE 10.4 mph 21.9 mph N/A   Clear
12:53 PM 42.1 °F 36.6 °F 23.0 °F 47% 30.30 in 10.0 mi SE 9.2 mph 18.4 mph N/A   Clear
1:53 PM 43.0 °F 38.2 °F 23.0 °F 45% 30.28 in 10.0 mi SSE 8.1 mph - N/A   Clear
2:53 PM 44.1 °F 38.6 °F 24.1 °F 45% 30.25 in 10.0 mi SE 10.4 mph - N/A   Clear
3:53 PM 42.1 °F 36.6 °F 23.0 °F 47% 30.23 in 10.0 mi SE 9.2 mph - N/A   Clear
4:53 PM 41.0 °F 35.8 °F 25.0 °F 53% 30.23 in 10.0 mi SE 8.1 mph - N/A   Clear
5:53 PM 39.9 °F 34.5 °F 26.1 °F 58% 30.24 in 10.0 mi SE 8.1 mph - N/A   Clear
6:53 PM 39.0 °F 36.8 °F 27.0 °F 62% 30.25 in 10.0 mi SSE 3.5 mph - N/A   Clear
7:53 PM 39.0 °F 34.8 °F 28.0 °F 65% 30.23 in 10.0 mi SE 5.8 mph - N/A   Clear
8:53 PM 39.9 °F 34.5 °F 28.9 °F 65% 30.21 in 10.0 mi SE 8.1 mph - N/A   Scattered Clouds
9:53 PM 41.0 °F 35.2 °F 30.0 °F 65% 30.20 in 10.0 mi SSE 9.2 mph - N/A   Overcast
10:53 PM 41.0 °F 36.4 °F 32.0 °F 70% 30.25 in 10.0 mi South 6.9 mph - N/A   Overcast
11:53 PM 41.0 °F - 32.0 °F 70% 30.24 in 10.0 mi Calm Calm - 0.00 in Rain Light Rain